This demonstration page uses our WeatherBlox Daily Observations layout. Learn more.

Hourly Observations for June 2, 2017

Temp ( °F °C ) Dew Point ( °F °C ) Humidity (%) Winds ( mph kmh ) Pressure ( in mb ) Visibility ( mi km ) Precip ( " mm )
12:54 am 00:54 Clear 68 20 64 17.8 87 87 SSE 7 11 29.95 1014 10 16.0934 0 0
1:54 am 01:54 Partly Cloudy 69 20.6 64 17.8 84 84 SE 9 15 29.94 1014 10 16.0934 0 0
2:54 am 02:54 Mostly Clear 68 20 64 17.8 87 87 SSE 7 11 29.93 1014 10 16.0934 0 0
3:54 am 03:54 Mostly Clear 67 19.4 64 17.8 91 91 SSE 7 11 29.94 1014 10 16.0934 0 0
4:54 am 04:54 Clear 66 18.9 64 17.8 93 93 SSE 7 11 29.95 1014 10 16.0934 0 0
5:54 am 05:54 Partly Cloudy 66 18.9 63 17.2 90 90 SSE 6 9 29.96 1015 10 16.0934 0 0
6:54 am 06:54 Sunny 66 18.9 63 17.2 90 90 SE 8 13 29.98 1015 10 16.0934 0 0
7:54 am 07:54 Sunny 69 20.6 64 17.8 84 84 S 8 13 29.98 1015 10 16.0934 0 0
8:54 am 08:54 Sunny 74 23.3 63 17.2 69 69 SW 8 13 29.98 1015 10 16.0934 0 0
9:54 am 09:54 Sunny 77 25 63 17.2 62 62 S 9 15 29.98 1015 10 16.0934 0 0
10:54 am 10:54 Sunny 82 27.8 63 17.2 53 53 SSW 10 17 29.96 1015 10 16.0934 0 0
11:54 am 11:54 Sunny 84 28.9 64 17.8 51 51 S 10 17 29.97 1015 10 16.0934 0 0
12:54 pm 12:54 Sunny 86 30 61 16.1 43 43 SW 10 17 29.96 1015 10 16.0934 0 0
1:54 pm 13:54 Sunny 87 30.6 57 13.9 36 36 SSW 13 20 29.94 1014 10 16.0934 0 0
2:54 pm 14:54 Sunny 88 31.1 57 13.9 35 35 S 15 24 29.93 1014 10 16.0934 0 0
3:54 pm 15:54 Sunny 88 31.1 58 14.4 36 36 SSW 13 20 29.91 1013 10 16.0934 0 0
4:54 pm 16:54 Sunny 88 31.1 56 13.3 34 34 SSW 16 26 29.91 1013 10 16.0934 0 0
5:54 pm 17:54 Sunny 87 30.6 59 15 39 39 SSE 14 22 29.89 1012 10 16.0934 0 0
7:54 pm 19:54 Sunny 82 27.8 57 13.9 42 42 S 12 19 29.88 1012 10 16.0934 0 0
8:54 pm 20:54 Clear 77 25 58 14.4 52 52 S 10 17 29.9 1012 10 16.0934 0 0
9:54 pm 21:54 Clear 74 23.3 59 15 60 60 S 9 15 29.92 1013 10 16.0934 0 0
10:54 pm 22:54 Clear 74 23.3 60 15.6 62 62 SSW 7 11 29.95 1014 10 16.0934 0 0
11:54 pm 23:54 Clear 72 22.2 60 15.6 66 66 SSW 7 11 29.96 1015 10 16.0934 0 0

Powered by AerisWeather